{"data":{"norad_id":66166,"intl_designator":"2025-240W","name":"STARLINK-35624","alt_names":[],"object_type":"PAYLOAD","status":"ACTIVE","operator":null,"country":"US","launch_date":"2025-10-25","launch_site_code":"AFWTR","launch_vehicle":null,"mission":null,"orbit_class":"UNKNOWN","rcs_meters":null,"size_class":null,"mass_kg":null,"dimensions":null,"purposes":["comms"],"wikipedia_slug":null,"has_3d_model":false,"image_url":null,"decayed_at":null,"tle_current":{"epoch":"2026-05-25T04:34:49.439136Z","epoch_age_seconds":58633,"freshness":"FRESH","line1":"1 66166U 25240W   26145.19084999  .00024271  00000+0  72788-3 0  9995","line2":"2 66166  53.1602  66.5717 0001112  74.9757 285.1368 15.34368136 33717","mean_motion":15.34368136,"eccentricity":0.0001112,"inclination_deg":53.1602,"raan_deg":66.5717,"arg_perigee_deg":74.9757,"mean_anomaly_deg":285.1368,"bstar":0.00072788,"rev_number":3371,"period_min":93.849707004082,"perigee_km":462.03723640284,"apogee_km":463.55866033536,"semimajor_km":6840.9349483691,"source":"CELESTRAK","updated_at":"2026-05-25T13:38:21.073131Z"}}}